Weather History for Fort Sill, OK

Change the Weather History Date:

Saturday, November 26, 2011

  Actual Average Record
Temperature  
Mean Temperature 50 °F -  
Max Temperature 59 °F 60 °F 82 °F (1970)
Min Temperature 41 °F 36 °F 11 °F (1975)
Degree Days  
Heating Degree Days 14    
Moisture  
Dew Point 47 °F    
Average Humidity 83    
Maximum Humidity 100    
Minimum Humidity 41    
Precipitation  
Precipitation 0.35 in - - ()
Sea Level Pressure  
Sea Level Pressure 29.90 in    
Wind  
Wind Speed 13 mph (NNW)    
Max Wind Speed 37 mph    
Max Gust Speed 48 mph    
Visibility 10 miles    
Events Rain    
Averages and records for this station are not official NWS values.
T = Trace of Precipitation, MM = Missing Value Source: NWS Daily Summary

Daily Weather History Graph

Daily Weather History Graph

Search for Another Location

Airport:

Trip Planner

Search our weather history database for the weather conditions in past years. The results will help you decide how hot, cold, wet, or windy it might be!

Date:

Astronomy

Nov. 26, 2011 Rise Set
Actual Time 7:17 AM CST 5:23 PM CST
Civil Twilight 6:50 AM CST 5:51 PM CST
Nautical Twilight 6:19 AM CST 6:22 PM CST
Astronomical Twilight 5:49 AM CST 6:52 PM CST
Moon 8:47 AM CST (11/26) 6:58 PM CST (11/26)
Length of Visible Light 11h 00m
Length of Day
10h 06m
Waxing Crescent, 3% of the Moon is Illuminated
Nov 26
Waxing Crescent
Dec 2
First Quarter
Dec 10
Full
Dec 17
Last Quarter
Dec 24
New

Hourly Weather History & Observations

Time (CST) Temp. Windchill Dew Point Humidity Pressure Visibility Wind Dir Wind Speed Gust Speed Precip Events Conditions
12:09 AM 59.0 °F - 59.0 °F 100% 29.74 in 10.0 mi SSE 8.1 mph - N/A   Overcast
12:12 AM 59.0 °F - 59.0 °F 100% 29.73 in 10.0 mi SSE 8.1 mph - N/A Rain Light Rain
12:20 AM 59.0 °F - 59.0 °F 100% 29.74 in 7.0 mi SSE 11.5 mph - N/A Rain Light Rain
12:37 AM 59.0 °F - 59.0 °F 100% 29.73 in 5.0 mi SSE 12.7 mph - N/A Rain Light Rain
12:40 AM 59.0 °F - 59.0 °F 100% 29.73 in 4.0 mi South 8.1 mph - N/A Rain Light Rain
12:48 AM 59.0 °F - 59.0 °F 100% 29.74 in 5.0 mi SW 4.6 mph - N/A Rain Light Rain
12:50 AM 59.0 °F - 59.0 °F 100% 29.74 in 7.0 mi SW 4.6 mph - N/A Rain Light Rain
12:55 AM 59.2 °F - 59.2 °F 100% 29.73 in 7.0 mi South 4.6 mph - 0.17 in Rain Light Rain
12:59 AM 59.0 °F - 59.0 °F 100% 29.73 in 10.0 mi SSW 5.8 mph - N/A   Overcast
1:30 AM 59.0 °F - 59.0 °F 100% 29.72 in 10.0 mi South 10.4 mph - N/A   Mostly Cloudy
1:32 AM 59.0 °F - 59.0 °F 100% 29.72 in 10.0 mi South 10.4 mph - N/A   Mostly Cloudy
1:33 AM 59.0 °F - 59.0 °F 100% 29.72 in 10.0 mi South 10.4 mph - N/A   Mostly Cloudy
1:44 AM 59.0 °F - 59.0 °F 100% 29.72 in 10.0 mi South 9.2 mph - N/A   Scattered Clouds
1:55 AM 58.3 °F - 58.3 °F 100% 29.72 in 10.0 mi South 9.2 mph - 0.00 in   Partly Cloudy
2:55 AM 56.7 °F - 56.7 °F 100% 29.72 in 10.0 mi South 8.1 mph - N/A   Clear
3:55 AM 56.3 °F - 56.3 °F 100% 29.72 in 10.0 mi South 3.5 mph - N/A   Clear
4:23 AM 55.4 °F - 55.4 °F 100% 29.73 in 10.0 mi Calm Calm - N/A   Mostly Cloudy
4:34 AM 53.6 °F - 53.6 °F 100% 29.74 in 10.0 mi NW 6.9 mph - N/A   Mostly Cloudy
4:41 AM 55.4 °F - 55.4 °F 100% 29.74 in 10.0 mi Calm Calm - N/A   Overcast
4:50 AM 55.4 °F - 55.4 °F 100% 29.75 in 10.0 mi NNW 3.5 mph - N/A   Overcast
4:55 AM 55.6 °F - 55.6 °F 100% 29.75 in 10.0 mi NNW 9.2 mph - N/A   Overcast
5:02 AM 57.2 °F - 57.2 °F 100% 29.75 in 10.0 mi NNW 4.6 mph - N/A   Overcast
5:36 AM 55.4 °F - 55.4 °F 100% 29.78 in 10.0 mi North 26.5 mph - N/A   Squalls
5:37 AM 55.4 °F - 55.4 °F 100% 29.78 in 10.0 mi North 28.8 mph 35.7 mph N/A   Squalls
5:50 AM 51.8 °F - 51.8 °F 100% 29.79 in 10.0 mi North 28.8 mph 40.3 mph N/A   Overcast
5:55 AM 52.5 °F - 52.3 °F 99% 29.80 in 10.0 mi North 26.5 mph 40.3 mph N/A   Overcast
6:03 AM 51.8 °F - 50.0 °F 94% 29.81 in 10.0 mi North 23.0 mph 33.4 mph N/A   Overcast
6:10 AM 53.6 °F - 50.0 °F 88% 29.82 in 10.0 mi North 21.9 mph 31.1 mph N/A   Overcast
6:14 AM 51.8 °F - 50.0 °F 94% 29.82 in 10.0 mi North 23.0 mph 32.2 mph N/A   Overcast
6:55 AM 52.0 °F - 46.2 °F 81% 29.85 in 10.0 mi North 24.2 mph 39.1 mph N/A   Scattered Clouds
7:55 AM 51.8 °F - 43.5 °F 73% 29.88 in 10.0 mi North 20.7 mph 34.5 mph N/A   Mostly Cloudy
8:55 AM 50.7 °F - 40.8 °F 69% 29.94 in 10.0 mi North 36.8 mph 44.9 mph 0.10 in   Overcast
9:49 AM 48.2 °F - 41.0 °F 76% 29.98 in 10.0 mi North 35.7 mph 48.3 mph N/A   Light Drizzle
9:55 AM 47.7 °F - 40.5 °F 76% 29.98 in 10.0 mi North 35.7 mph 48.3 mph 0.06 in Rain Light Rain
10:55 AM 45.9 °F 37.6 °F 40.5 °F 81% 30.07 in 9.0 mi NNW 23.0 mph 34.5 mph 0.01 in Rain Rain
11:55 AM 47.3 °F - 37.4 °F 68% 30.08 in 10.0 mi NNW 25.3 mph 34.5 mph 0.01 in Rain Light Rain
12:08 PM 46.4 °F 38.1 °F 39.2 °F 76% 30.08 in 10.0 mi NNW 24.2 mph 33.4 mph N/A   Overcast
12:55 PM 47.8 °F - 36.7 °F 65% 30.07 in 10.0 mi NNW 26.5 mph 34.5 mph 0.00 in   Partly Cloudy
1:55 PM 49.1 °F - 35.8 °F 60% 30.09 in 10.0 mi North 26.5 mph 36.8 mph N/A   Mostly Cloudy
2:55 PM 50.0 °F - 34.3 °F 55% 30.11 in 10.0 mi North 29.9 mph 42.6 mph N/A   Mostly Cloudy
3:55 PM 50.2 °F - 33.8 °F 53% 30.14 in 10.0 mi North 20.7 mph 29.9 mph N/A   Overcast
4:55 PM 48.7 °F - 32.0 °F 52% 30.17 in 10.0 mi North 20.7 mph 29.9 mph N/A   Overcast
5:55 PM 47.8 °F - 32.2 °F 55% 30.19 in 10.0 mi North 16.1 mph - N/A   Mostly Cloudy
6:55 PM 47.8 °F - 30.9 °F 52% 30.22 in 10.0 mi North 15.0 mph 21.9 mph N/A   Overcast
7:55 PM 47.1 °F - 24.6 °F 41% 30.25 in 10.0 mi North 24.2 mph 28.8 mph N/A   Clear
8:55 PM 45.9 °F 38.5 °F 23.5 °F 41% 30.27 in 10.0 mi North 18.4 mph 25.3 mph N/A   Clear
9:55 PM 44.2 °F 36.4 °F 22.3 °F 42% 30.30 in 10.0 mi North 18.4 mph 26.5 mph N/A   Clear
10:55 PM 42.8 °F 35.4 °F 22.8 °F 45% 30.32 in 10.0 mi NNW 15.0 mph 25.3 mph N/A   Clear
11:55 PM 41.4 °F 33.6 °F 24.3 °F 51% 30.32 in 10.0 mi NNW 15.0 mph - N/A   Clear